Powrót do katalogu

SL-14 DEB

AktywnyPO
NORAD 17273·DEBRIS·🇷🇺 Russia

Wystrzelony Dec 18, 1986 z Plesetsk Cosmodrome

Loading…

Następne Przeloty (najbliższe 24 godziny)

TLE

ŚwieżeSource: Space-Track

Epoka: Sep 14, 2026, 10:50 UTC

1 17273U 86101H   26257.45171082  .00000777  00000-0  40934-3 0  9990
2 17273  82.5396 244.1097 0020647 302.1652 213.0635 14.12825931 32180

Śledź SL-14 DEB w czasie rzeczywistym z AllMySat

Download on the App Store